Kezdőlap
METAR-TAF:

METAR-TAF

Repülőterek :

Passo Rolle, Olaszország

földrajzi szélesség: 46-18N, földrajzi hosszúság: 011-47E, magasság: 2004 m

Jelenlegi meteorológiai megfigyelések

A jelentés 57 perccel ezelõtt készült, 11:55 UTC
Északkeleti szél 3 kt
Hőmérséklet 0°C
Páratartalom 47%
Légköri nyomás 1019 hPa
Látótávolság 10 km, vagy több
Kevés felhő 3000 lábon

METAR: LIVR 181155Z 05003KT 9999 FEW030 00/M10 Q1019 RMK FEW MON LIB VIS MIN 9999

Idő: 13:52 (12:52 UTC)


TAF: hiányzik

Meteorológiai megfigyelések és előrejelzések több, mint 4000 repülőtéren (METAR és TAF jelentéseket).

A térképen piros és sárga pontok jelzik az elérhető meteorológiai állomásokat.

Mozgassa az egeret a pont fölött, hogy megjelenjen az állomás neve.

Azután kattintson az időjárási megfigyelések és előrejelzések megtekintéséhez.

A térkép megváltoztatása: kattintson a fekete keresztel jelölt zöld gombra ráközelítéshez, a vonallal jelölt zöld gombra távolításhoz, vagy a zöld nyilakra a szomszédos térképek eléréséhez.


METAR-TAF: